Location: Newark
(30.1000°N, 109.4667°E)
Time: 01:07:26
(UTC+00:00)

A-11 Canister half - Pass Details

Date: 26 February 2020
Orbit: 1517 x 1683 km, 47.2° (Epoch: 27 March)

Event Time Altitude Azimuth Distance (km) Brightness Sun altitude
Rises 14:40:17 0° 307° (NW) 4,790 12.2 -52.0°
Reaches altitude 10° 14:43:26 10° 306° (NW) 3,780 11.5 -52.6°
Enters shadow 14:47:18 28° 300° (WNW) 2,608 10.4 -53.3°
